Decimomannu, Italy

5:47 PM CEST on August 28, 2016 (GMT +0200)
Decimomannu Mil

Weather History for LIED - July, 2013

Change the Weather History Date:

Sunday, July 7, 2013

  Actual Average Record
Temperature  
Mean Temperature 79 °F -  
Max Temperature 94 °F 89 °F 99 °F (2015)
Min Temperature 64 °F 64 °F 55 °F (1997)
Cooling Degree Days 14    
Growing Degree Days 29 (Base 50)    
Moisture  
Dew Point 60 °F    
Average Humidity 60    
Maximum Humidity 88    
Minimum Humidity 4    
Precipitation  
Precipitation 0.03 in 0.01 in - ()
Sea Level Pressure  
Sea Level Pressure 30.06 in    
Wind  
Wind Speed 6 mph ()    
Max Wind Speed 21 mph    
Max Gust Speed 32 mph    
Visibility 8.1 miles    
Events Rain , Thunderstorm    
Averages and records for this station are not official NWS values.
T = Trace of Precipitation, MM = Missing Value Source: Averaged Metar Reports

Daily Weather History Graph

Daily Weather History Graph

Search for Another Location

Airport or City:

Trip Planner

Search our weather history database for the weather conditions in past years. The results will help you decide how hot, cold, wet, or windy it might be!

Date:

Astronomy

Jul. 07, 2013 Rise Set
Actual Time 6:04 AM CEST 8:53 PM CEST
Civil Twilight 5:32 AM CEST 9:25 PM CEST
Nautical Twilight 4:52 AM CEST 10:05 PM CEST
Astronomical Twilight 4:06 AM CEST 10:51 PM CEST
Moon 5:26 AM CEST (7/7) 8:06 PM CEST (7/7)
Length of Visible Light 15h 52m
Length of Day
14h 49m
Waning Crescent, 1% of the Moon is Illuminated
Jul 7
Waning Crescent
Jul 8
New
Jul 16
First Quarter
Jul 22
Full
Jul 29
Last Quarter

Hourly Weather History & Observations

Time (CEST) Temp. Heat Index Dew Point Humidity Pressure Visibility Wind Dir Wind Speed Gust Speed Precip Events Conditions
12:55 AM 71.6 °F - -22.0 °F 4% 30.09 in - NNW 4.6 mph - N/A   Clear
1:55 AM 69.8 °F - 66.2 °F 88% 30.09 in - NW 3.5 mph - N/A   Clear
2:00 AM 70 °F - 67 °F 86% 30.11 in 10 mi NW 3.5 mph - -  
2:55 AM 68.0 °F - 64.4 °F 88% 30.09 in - NNW 3.5 mph - N/A   Clear
3:55 AM 66.2 °F - 62.6 °F 88% 30.06 in - NNW 3.5 mph - N/A   Clear
4:55 AM 64.4 °F - 60.8 °F 88% 30.06 in - North 2.3 mph - N/A   Clear
5:00 AM 65 °F - 60 °F 81% 30.09 in 9 mi North 2.3 mph - -  
5:55 AM 64.4 °F - 60.8 °F 88% 30.06 in - NNW 2.3 mph - N/A   Clear
7:55 AM 68.0 °F - 60.8 °F 78% 30.06 in - North 4.6 mph - N/A   Clear
8:00 AM 68 °F - 61 °F 71% 30.09 in 12 mi North 4.6 mph - -  
8:55 AM 73.4 °F - 62.6 °F 69% 30.06 in - NNW 5.8 mph - N/A   Clear
9:55 AM 77.0 °F - 62.6 °F 61% 30.06 in - NW 9.2 mph - N/A   Clear
10:55 AM 86.0 °F 85.4 °F 59.0 °F 40% 30.06 in 6.2 mi NNW 9.2 mph - N/A   Partly Cloudy
11:00 AM 86 °F - 59 °F 29% 30.08 in 12 mi NNW 9.2 mph - -   Scattered Clouds
11:55 AM 91.4 °F 89.9 °F 57.2 °F 31% 30.04 in 6.2 mi SW 4.6 mph - N/A   Scattered Clouds
1:55 PM 95.0 °F 94.4 °F 59.0 °F 30% 30.04 in 6.2 mi SE 16.1 mph - N/A   Scattered Clouds
2:00 PM 94 °F - 58 °F 21% 30.05 in 12 mi SE 16.1 mph - -   Mostly Cloudy
2:55 PM 91.4 °F 89.9 °F 57.2 °F 31% 30.04 in 6.2 mi SE 20.7 mph - N/A   Scattered Clouds
3:55 PM 84.2 °F 83.8 °F 59.0 °F 42% 30.06 in 6.2 mi ESE 18.4 mph 32.2 mph N/A   Scattered Clouds
4:55 PM 84.2 °F 85.0 °F 62.6 °F 48% 30.06 in 6.2 mi SSE 13.8 mph - N/A Thunderstorm Thunderstorm
5:00 PM 84 °F - 62 °F 38% 30.06 in 7 mi SSE 13.8 mph - - Thunderstorm Thunderstorm
5:38 PM 82.4 °F 83.4 °F 62.6 °F 51% 30.04 in 6.2 mi SSE 9.2 mph - N/A Rain , Thunderstorm Light Thunderstorms and Rain
5:55 PM 78.8 °F - 66.2 °F 65% 30.04 in 6.2 mi SSE 13.8 mph - N/A Rain , Thunderstorm Light Thunderstorms and Rain
6:55 PM 82.4 °F 85.4 °F 68.0 °F 62% 30.04 in 6.2 mi South 6.9 mph - N/A   Scattered Clouds
7:55 PM 80.6 °F 81.8 °F 62.6 °F 54% 30.04 in 6.2 mi SSE 8.1 mph - N/A   Partly Cloudy
8:00 PM 81 °F - 64 °F 46% 30.06 in 12 mi SSE 8.1 mph - -   Partly Cloudy
8:55 PM 77.0 °F - 64.4 °F 65% 30.06 in 6.2 mi SE 4.6 mph - N/A   Partly Cloudy
9:55 PM 75.2 °F - 68.0 °F 78% 30.06 in - East 3.5 mph - N/A   Clear
10:55 PM 73.4 °F - 68.0 °F 83% 30.06 in - ENE 5.8 mph - N/A   Clear
11:00 PM 74 °F - 69 °F 78% 30.09 in 12 mi ENE 5.8 mph - -   Clear
11:55 PM 73.4 °F - 66.2 °F 78% 30.06 in - NE 4.6 mph - N/A   Clear